CYHM

Hamilton/John C. Munro Hamilton International Airport

Airport
ICAO code
CYHM
IATA Code
YHM
Summary
ICAO Region
NAM
ICAO Territory
Location

Hamilton, Ontario,

Serving
Hamilton
Elevation
780 ft
Coordinates
43° 10' 23" N , 79° 56' 6" W
KCC
Metar
CYHM 161200Z 32003KT 250V340 15SM FEW250 08/00 A3018 RMK CI1 CI TR SLP227

Description

John C. Munro Hamilton International Airport or Hamilton International, is an international airport in Hamilton, Ontario, Canada.

Climatology

Humid continental climate (Köppen climate classification Dfa) - characterized by four seasons: cold, windy, snowy winters, mild springs, hot, humid summers, and crisp and relatively short autumns. Precipitation reaches its lowest in January and February and peaks in summer and latter half of spring.

Runways

Designator Length Width Surface Rops
6/24 1829 46 ASP Yes/Yes
12/30 3048 61 ASP Yes/Yes

SKYbrary Partners:

Safety knowledge contributed by: